Terminal Aerodrome Forecast
Issued by NWS El Paso, TX

Home | Current Version | Previous Version | Text Only | Print | Product List | Glossary On
Versions: 1 2 3 4 5 6 7 8 9 10 11 12 13 14 15 16 17 18 19
000
FTUS44 KEPZ 202300
TAFELP
TAF
KELP 202332Z 2100/2124 26010KT P6SM FEW070 FEW120
      TEMPO 2100/2103 22010G20KT
     FM211100 08008KT P6SM FEW080 SCT250
     FM212100 23006KT P6SM SCT080=

USA.gov is the U.S. government's official web portal to all federal, state and local government web resources and services.